Main page
METAR-TAF:

METAR-TAF

Airports :

Paganella, Italy

latitude: 46-09N, longitude: 011-02E, elevation: 2125 m

Current weather observation

The report was made 51 minutes ago, at 00:55 UTC
Calm wind
Temperature -10°C
Humidity 72%
Pressure 1005 hPa
Visibility 10 km or more
no clouds below 1500 m and no cumulonimbus

METAR: LIVP 200055Z 00000KT CAVOK M10/M14 Q1005 RMK FEW FEW190 MON LIB VAL CLD SCT VIS MIN 9999

Time: 02:46 (01:46 UTC)


TAF: missing

Weather observations and forecasts of more than 4000 airports (METAR and TAF reports).

The available stations are represented by yellow and red dots on the map.

Hover mouse over dot to see the name of the station.

Then click to see weather observations and forecasts.

To change the map : click on the green buttons with a black cross to zoom in, on the green button with a dash to zoom out, or on the green arrows for adjacent maps.


METAR-TAF: